Погода в Кирово

Украина / Донецкая область     48°23′19″N   37°54′23″E
темп.,
°C
ветер,
м/с
пор.,
м/с
влажн.,
%
обл.,
%
осадки,
мм/ч
давл.,
гПа
погр.,
м
23 апреля, пт
пт2300:00+9юз34807 0.0 102269
03:00+8юз36875 0.0 1022107
06:00+7ююз368921 0.0 1022141
09:00+13юз576443 0.0 1022649
12:00+16юз674721 0.1 10201949
15:00+18юз673784 0.2 10182624
18:00+15юз7104888 0.0 1017731
21:00+12ююз61161100 0.0 1017555
24 апреля, сб
сб2400:00+11юз61071100 0.1 1017632
03:00+9юз41081100 0.2 1015722
06:00+9зюз71279100 0.1 10141319
09:00+5сз598591 0.9 1017662
12:00+12з81142100 0.1 10162639
15:00+12зсз91232100 0.1 10172986
18:00+10зсз8124345 0.0 10182441
21:00+7зсз51053100 0.0 1021662
25 апреля, вс
вс2500:00+4з49570 0.0 1022307
03:00+3з38650 0.0 1022182
06:00+2зюз35660 0.0 1023126
09:00+7зсз36445 0.0 10231219
12:00+10зсз34355 0.0 10221913
15:00+12з343299 0.0 10202349
18:00+12зюз2336100 0.0 10192021
21:00+9ю2245100 0.0 101954
26 апреля, пн
пн2600:00+7ююз3647100 0.0 1019134
03:00+6юз345980 0.0 101870
06:00+5юз226175 0.0 101833
09:00+10ююз344331 0.0 1017820
12:00+13ююз45365 0.0 10151950
15:00+10зсз886890 0.0 1015742
18:00+6зсз577690 0.0 1016633
21:00+4сз11843 0.0 101744
27 апреля, вт
вт2700:00+4зюз3583100 0.0 1018129
03:00+3зюз36840 0.0 1018145
06:00+2зюз26785 0.0 1018145
09:00+8зюз3555100 0.0 1018691
12:00+11з5642100 0.1 10182250
15:00+8з3468100 0.4 1018796
18:00+9з4770100 0.1 10181174
21:00+5ссв3391100 0.1 1020247